This is the latest recevied weather packets stored in our database for station/object IN3MWE-10. If no packets are shown the sender has not sent any weather packets the latest 10 day(s).
| Time | Temp. | Humidity | Pressure | Rain* | Wind** | Luminosity | Snow |
|---|---|---|---|---|---|---|---|
| 1777758623 | 16.67° C | 41% | 984.7 hPa | - | - | - | - |
| 1777757723 | 16.67° C | 40% | 984.7 hPa | - | - | - | - |
| 1777756823 | 16.67° C | 40% | 984.6 hPa | - | - | - | - |
| 1777755923 | 16.67° C | 41% | 984.5 hPa | - | - | - | - |
| 1777755022 | 17.22° C | 41% | 984.4 hPa | - | - | - | - |
| 1777754122 | 17.22° C | 40% | 984.4 hPa | - | - | - | - |
| 1777753222 | 17.22° C | 39% | 984.4 hPa | - | - | - | - |
| 1777752322 | 17.78° C | 40% | 984.3 hPa | - | - | - | - |
| 1777751422 | 17.78° C | 39% | 984.2 hPa | - | - | - | - |
| 1777750522 | 17.78° C | 39% | 983.9 hPa | - | - | - | - |
| 1777749622 | 18.33° C | 39% | 983.7 hPa | - | - | - | - |
| 1777748722 | 18.33° C | 39% | 983.4 hPa | - | - | - | - |
| 1777747821 | 18.89° C | 38% | 983.2 hPa | - | - | - | - |
| 1777746921 | 19.44° C | 33% | 982.9 hPa | - | - | - | - |
| 1777746021 | 20.56° C | 32% | 982.6 hPa | - | - | - | - |
| 1777745121 | 21.11° C | 29% | 982.4 hPa | - | - | - | - |
| 1777744221 | 21.11° C | 29% | 982.1 hPa | - | - | - | - |
| 1777743321 | 22.22° C | 27% | 981.9 hPa | - | - | - | - |
| 1777742421 | 22.22° C | 27% | 981.7 hPa | - | - | - | - |
| 1777741520 | 22.78° C | 25% | 981.6 hPa | - | - | - | - |
| 1777740620 | 23.33° C | 25% | 981.5 hPa | - | - | - | - |
| 1777739720 | 23.89° C | 24% | 981.6 hPa | - | - | - | - |
| 1777738820 | 26.67° C | 22% | 981.5 hPa | - | - | - | - |
| 1777737920 | 27.78° C | 20% | 981.6 hPa | - | - | - | - |
| 1777737020 | 27.22° C | 20% | 981.7 hPa | - | - | - | - |
* Rain since midnight (hover to see other rain measurements)
** Current wind speed in m/s (hover to see current wind gust speed)